| time (UTC) | temp C | wind direction | speed KPH | gust KPH | rain 1hr cm | rain 24hr cm | rain mn cm | humidity % | barometer mb |
| 20260502091044 | 22 | 131 | 1.6 | 1.6 | 0.00 | 0.00 | 0.00 | 44 | 1017.9 |
| 20260502071036 | 16 | 130 | 6.4 | 6.4 | 0.00 | 0.00 | 0.00 | 58 | 1018.6 |
| 20260502065535 | 15 | 181 | 1.6 | 3.2 | 0.00 | 0.00 | 0.00 | 59 | 1018.6 |
| 20260502064034 | 15 | 197 | 4.8 | 6.4 | 0.00 | 0.00 | 0.00 | 60 | 1018.6 |
| 20260502062533 | 14 | 169 | 6.4 | 9.7 | 0.00 | 0.00 | 0.00 | 59 | 1018.6 |
| 20260502061033 | 13 | 152 | 3.2 | 3.2 | 0.00 | 0.00 | 0.00 | 64 | 1018.6 |
| 20260502055532 | 12 | 142 | 4.8 | 4.8 | 0.00 | 0.00 | 0.00 | 65 | 1018.9 |
| 20260502054031 | 12 | 147 | 4.8 | 9.7 | 0.00 | 0.00 | 0.00 | 65 | 1018.6 |
| 20260502052530 | 11 | 152 | 1.6 | 1.6 | 0.00 | 0.00 | 0.00 | 67 | 1018.6 |
| 20260502051029 | 10 | 182 | 3.2 | 6.4 | 0.00 | 0.00 | 0.00 | 71 | 1018.6 |
| 20260502045528 | 10 | 127 | 0.0 | 0.0 | 0.00 | 0.00 | 0.00 | 72 | 1018.6 |
| 20260502044027 | 10 | 114 | 3.2 | 4.8 | 0.00 | 0.00 | 0.00 | 73 | 1018.6 |
| 20260502042526 | 10 | 130 | 1.6 | 1.6 | 0.00 | 0.00 | 0.00 | 73 | 1018.6 |
| 20260502041025 | 10 | 202 | 0.0 | 0.0 | 0.00 | 0.00 | 0.00 | 73 | 1018.6 |
| 20260502035524 | 10 | 153 | 1.6 | 1.6 | 0.00 | 0.00 | 0.00 | 72 | 1018.6 |
| 20260502034023 | 10 | 317 | 0.0 | 1.6 | 0.00 | 0.00 | 0.00 | 72 | 1018.6 |
| 20260502032523 | 10 | 142 | 1.6 | 3.2 | 0.00 | 0.00 | 0.00 | 73 | 1018.9 |
| 20260502031022 | 10 | 154 | 3.2 | 3.2 | 0.00 | 0.00 | 0.00 | 71 | 1018.9 |
| 20260502025521 | 10 | 125 | 0.0 | 0.0 | 0.00 | 0.00 | 0.00 | 70 | 1018.9 |
| 20260502024021 | 10 | 164 | 0.0 | 0.0 | 0.00 | 0.00 | 0.00 | 72 | 1018.9 |
| 20260502022520 | 10 | 144 | 0.0 | 0.0 | 0.00 | 0.00 | 0.00 | 75 | 1019.3 |
| 20260502021019 | 9 | 143 | 0.0 | 0.0 | 0.00 | 0.00 | 0.00 | 75 | 1018.9 |
| 20260502015519 | 10 | 27 | 0.0 | 0.0 | 0.00 | 0.00 | 0.00 | 73 | 1019.3 |
| 20260502014018 | 10 | 90 | 0.0 | 0.0 | 0.00 | 0.00 | 0.00 | 71 | 1019.3 |
| 20260502012517 | 10 | 59 | 0.0 | 0.0 | 0.00 | 0.00 | 0.00 | 71 | 1019.3 |
| 20260502011016 | 11 | 120 | 0.0 | 0.0 | 0.00 | 0.00 | 0.00 | 70 | 1019.6 |
| 20260502005515 | 11 | 58 | 0.0 | 0.0 | 0.00 | 0.00 | 0.00 | 69 | 1019.6 |
| 20260502004014 | 11 | 148 | 0.0 | 0.0 | 0.00 | 0.00 | 0.00 | 69 | 1020.0 |
| 20260502002513 | 11 | 143 | 0.0 | 0.0 | 0.00 | 0.00 | 0.00 | 70 | 1020.0 |
| 20260502001013 | 11 | 116 | 0.0 | 0.0 | 0.00 | 0.00 | 0.00 | 70 | 1020.0 |
| 20260501235512 | 11 | 130 | 0.0 | 1.6 | 0.00 | 0.00 | 0.00 | 68 | 1020.0 |
| 20260501234011 | 11 | 126 | 0.0 | 0.0 | 0.00 | 0.00 | 0.00 | 68 | 1020.3 |
| 20260501232511 | 11 | 138 | 1.6 | 1.6 | 0.00 | 0.00 | 0.00 | 68 | 1020.6 |
| 20260501231010 | 11 | 92 | 0.0 | 0.0 | 0.00 | 0.00 | 0.00 | 69 | 1020.6 |
| 20260501225509 | 11 | 63 | 0.0 | 0.0 | 0.00 | 0.00 | 0.00 | 70 | 1020.6 |
| 20260501224008 | 11 | 57 | 0.0 | 0.0 | 0.00 | 0.00 | 0.00 | 70 | 1020.6 |
| 20260501222507 | 11 | 53 | 0.0 | 0.0 | 0.00 | 0.00 | 0.00 | 71 | 1020.6 |
| 20260501221006 | 11 | 49 | 0.0 | 0.0 | 0.00 | 0.00 | 0.00 | 68 | 1020.6 |
| 20260501215506 | 11 | 39 | 0.0 | 0.0 | 0.00 | 0.00 | 0.00 | 67 | 1020.6 |
| 20260501214004 | 12 | 23 | 0.0 | 0.0 | 0.00 | 0.00 | 0.00 | 67 | 1020.6 |
| 20260501212504 | 12 | 23 | 0.0 | 0.0 | 0.00 | 0.00 | 0.00 | 66 | 1020.6 |
| 20260501211002 | 12 | 22 | 0.0 | 0.0 | 0.00 | 0.00 | 0.00 | 64 | 1020.6 |
| 20260501205501 | 13 | 29 | 0.0 | 0.0 | 0.00 | 0.00 | 0.00 | 64 | 1020.6 |
| 20260501204000 | 13 | 32 | 0.0 | 0.0 | 0.00 | 0.00 | 0.00 | 62 | 1020.6 |
| 20260501202459 | 13 | 35 | 0.0 | 0.0 | 0.00 | 0.00 | 0.00 | 59 | 1020.6 |
| 20260501200958 | 14 | 28 | 0.0 | 0.0 | 0.00 | 0.00 | 0.00 | 56 | 1020.6 |
| 20260501195457 | 15 | 108 | 0.0 | 0.0 | 0.00 | 0.00 | 0.00 | 53 | 1020.6 |
| 20260501193956 | 17 | 106 | 0.0 | 0.0 | 0.00 | 0.00 | 0.00 | 47 | 1020.6 |
| 20260501192455 | 16 | 123 | 0.0 | 0.0 | 0.00 | 0.00 | 0.00 | 47 | 1020.6 |
| 20260501190954 | 17 | 88 | 0.0 | 0.0 | 0.00 | 0.00 | 0.00 | 49 | 1020.6 |
| 20260501185453 | 18 | 90 | 0.0 | 0.0 | 0.00 | 0.00 | 0.00 | 44 | 1020.6 |
| 20260501183952 | 18 | 128 | 0.0 | 0.0 | 0.00 | 0.00 | 0.00 | 44 | 1020.6 |
| 20260501182451 | 20 | 123 | 0.0 | 0.0 | 0.00 | 0.00 | 0.00 | 38 | 1020.3 |
| 20260501180950 | 21 | 137 | 0.0 | 1.6 | 0.00 | 0.00 | 0.00 | 36 | 1020.6 |
| 20260501175450 | 21 | 142 | 1.6 | 1.6 | 0.00 | 0.00 | 0.00 | 34 | 1020.6 |
| 20260501173949 | 22 | 136 | 0.0 | 0.0 | 0.00 | 0.00 | 0.00 | 34 | 1020.3 |
| 20260501172448 | 22 | 161 | 6.4 | 6.4 | 0.00 | 0.00 | 0.00 | 32 | 1020.3 |
| 20260501170947 | 22 | 279 | 3.2 | 3.2 | 0.00 | 0.00 | 0.00 | 32 | 1020.6 |
| 20260501165446 | 23 | 160 | 3.2 | 3.2 | 0.00 | 0.00 | 0.00 | 30 | 1020.3 |
| 20260501163945 | 22 | 234 | 6.4 | 6.4 | 0.00 | 0.00 | 0.00 | 31 | 1020.6 |